Date String (YYYY-MM-DD hh:mm:ss) UTC,Instrument flags,Ambient pressure (hPa),Sample flow (lpm),Bypass flow (lpm),Sample temperature (°C),Ambient temperature (°C),ASC tube jacket temperature (°C),LED temperature (°C),Box temperature (°C),Sample RH (%),Span deviation,Mass concentration (μg/m³),Mass concentration (μg/m³),Mass concentration (μg/m³)
DateTimeUTC,F1_M11,P_M11,Q1_M11,Q2_M11,T1_M11,T2_M11,T3_M11,T4_M11,T5_M11,U1_M11,ZSPAN_M11,X0_M11,X2_M11,X1_M11
2022-06-04 06:00:00,,0823.9,5.00,0.00,30.0,28.9,00.0,39.0,31.7,22.8,0000.0,0012.99,0004.89,0004.15
2022-06-04 06:01:00,,0823.8,5.00,0.00,30.0,28.9,00.0,39.0,31.8,22.8,0000.0,0012.78,0004.93,0004.16
2022-06-04 06:02:00,,0823.8,5.00,0.00,30.0,28.9,00.0,38.9,31.7,22.6,0000.0,0013.29,0004.92,0004.18
2022-06-04 06:03:00,,0823.8,5.01,0.00,29.9,28.9,00.0,38.9,31.7,22.7,0000.0,0013.80,0004.94,0004.20
2022-06-04 06:04:00,,0823.8,5.00,0.00,29.9,28.9,00.0,38.9,31.7,22.7,0000.0,0013.89,0004.96,0004.22
2022-06-04 06:05:00,,0823.8,4.99,0.00,29.9,28.9,00.0,38.9,31.7,22.7,0000.0,0013.82,0005.03,0004.23
2022-06-04 06:06:00,,0823.8,5.00,0.00,29.9,28.8,00.0,38.9,31.7,22.6,0000.0,0014.39,0005.10,0004.26
2022-06-04 06:07:00,,0823.8,5.02,0.00,29.9,28.8,00.0,38.9,31.7,22.6,0000.0,0014.65,0005.14,0004.28
2022-06-04 06:08:00,,0823.8,5.01,0.00,29.9,28.8,00.0,38.9,31.7,22.6,0000.0,0014.84,0005.13,0004.30
2022-06-04 06:09:00,,0823.8,5.01,0.00,29.9,28.8,00.0,38.9,31.7,22.5,0000.0,0014.51,0005.12,0004.33
2022-06-04 06:10:00,,0823.8,5.00,0.00,29.9,28.8,00.0,38.9,31.8,22.3,0000.0,0013.88,0005.14,0004.36
2022-06-04 06:11:00,,0823.8,5.00,0.00,29.9,28.8,00.0,38.9,31.8,22.3,0000.0,0013.68,0005.16,0004.40
2022-06-04 06:12:00,,0823.8,5.00,0.00,30.0,28.8,00.0,38.9,31.7,22.5,0000.0,0013.44,0005.16,0004.43
2022-06-04 06:13:00,,0823.8,5.00,0.00,30.0,28.8,00.0,38.9,31.8,22.5,0000.0,0012.69,0005.19,0004.45
2022-06-04 06:14:00,,0823.8,5.00,0.00,30.0,28.8,00.0,38.9,31.8,22.5,0000.0,0012.11,0005.21,0004.46
2022-06-04 06:15:00,,0823.8,5.00,0.00,30.0,28.9,00.0,38.9,31.8,22.5,0000.0,0011.48,0005.18,0004.47
2022-06-04 06:16:00,,0823.8,5.00,0.00,30.0,28.9,00.0,38.9,31.8,22.4,0000.0,0010.96,0005.21,0004.48
2022-06-04 06:17:00,,0823.8,5.00,0.00,30.0,28.9,00.0,38.9,31.8,22.3,0000.0,0010.40,0005.17,0004.48
2022-06-04 06:18:00,,0823.8,4.99,0.00,30.0,28.9,00.0,38.9,31.9,22.4,0000.0,0010.32,0005.15,0004.49
2022-06-04 06:19:00,,0823.8,5.00,0.00,30.0,28.9,00.0,38.9,31.9,22.1,0000.0,0009.99,0005.21,0004.51
2022-06-04 06:20:00,,0823.8,4.99,0.00,30.0,28.9,00.0,38.9,31.9,22.1,0000.0,0009.92,0005.23,0004.51
2022-06-04 06:21:00,,0823.8,4.99,0.00,30.0,28.9,00.0,38.9,31.9,21.6,0000.0,0010.50,0005.25,0004.51
2022-06-04 06:22:00,,0823.8,5.00,0.00,30.0,28.9,00.0,38.9,31.9,21.4,0000.0,0011.11,0005.28,0004.51
2022-06-04 06:23:00,,0823.7,5.00,0.00,30.0,28.9,00.0,38.9,31.9,21.3,0000.0,0011.35,0005.29,0004.50
2022-06-04 06:24:00,,0823.7,5.00,0.00,30.0,28.9,00.0,38.9,31.9,21.2,0000.0,0011.23,0005.29,0004.50
2022-06-04 06:25:00,,0823.7,4.99,0.00,30.0,28.9,00.0,38.9,31.9,21.2,0000.0,0011.55,0005.30,0004.50
2022-06-04 06:26:00,,0823.7,5.00,0.00,30.0,28.9,00.0,38.9,31.9,21.2,0000.0,0012.24,0005.33,0004.51
2022-06-04 06:27:00,,0823.7,5.01,0.00,30.0,28.9,00.0,38.9,31.9,21.0,0000.0,0012.92,0005.30,0004.51
2022-06-04 06:28:00,,0823.7,5.01,0.00,30.0,28.9,00.0,38.9,31.9,21.2,0000.0,0013.32,0005.30,0004.52
2022-06-04 06:29:00,,0823.7,4.99,0.00,30.1,28.9,00.0,38.9,31.9,21.1,0000.0,0013.16,0005.31,0004.52
2022-06-04 06:30:00,,0823.7,5.00,0.00,30.1,28.9,00.0,38.9,31.9,21.1,0000.0,0013.08,0005.31,0004.52
2022-06-04 06:31:00,,0823.7,5.00,0.00,30.1,28.9,00.0,38.9,31.9,21.0,0000.0,0012.92,0005.31,0004.52
2022-06-04 06:32:00,,0823.7,5.00,0.00,30.1,28.9,00.0,39.0,31.9,21.0,0000.0,0012.15,0005.26,0004.52
2022-06-04 06:33:00,,0823.6,5.00,0.00,30.1,28.9,00.0,39.0,31.9,20.9,0000.0,0011.52,0005.22,0004.51
2022-06-04 06:34:00,,0823.6,5.00,0.00,30.1,28.9,00.0,39.0,31.9,20.9,0000.0,0011.32,0005.22,0004.52
2022-06-04 06:35:00,,0823.6,4.99,0.00,30.1,28.9,00.0,39.0,31.9,20.9,0000.0,0011.76,0005.22,0004.52
2022-06-04 06:36:00,,0823.7,5.01,0.00,30.1,28.9,00.0,39.0,31.9,20.9,0000.0,0011.42,0005.20,0004.52
2022-06-04 06:37:00,,0823.7,4.99,0.00,30.1,29.0,00.0,39.0,31.9,20.9,0000.0,0010.89,0005.18,0004.52
2022-06-04 06:38:00,,0823.6,4.99,0.00,30.1,28.9,00.0,39.0,31.9,20.9,0000.0,0010.08,0005.15,0004.52
2022-06-04 06:39:00,,0823.6,5.01,0.00,30.1,28.9,00.0,39.0,31.9,20.9,0000.0,0009.48,0005.14,0004.52
2022-06-04 06:40:00,,0823.6,4.99,0.00,30.1,28.9,00.0,39.0,31.9,20.9,0000.0,0010.17,0005.15,0004.52
2022-06-04 06:41:00,,0823.6,5.00,0.00,30.1,28.9,00.0,39.0,31.9,20.9,0000.0,0010.69,0005.14,0004.52
2022-06-04 06:42:00,,0823.5,5.01,0.00,30.1,28.9,00.0,39.0,31.9,20.9,0000.0,0011.65,0005.14,0004.53
2022-06-04 06:43:00,,0823.4,5.00,0.00,30.1,28.9,00.0,39.0,31.9,20.9,0000.0,0011.67,0005.15,0004.53
2022-06-04 06:44:00,,0823.4,4.99,0.00,30.1,28.9,00.0,39.0,31.9,20.9,0000.0,0011.79,0005.19,0004.55
2022-06-04 06:45:00,,0823.3,5.00,0.00,30.1,28.9,00.0,39.0,31.9,20.9,0000.0,0011.84,0005.22,0004.57
2022-06-04 06:46:00,,0823.4,5.00,0.00,30.1,28.9,00.0,39.0,31.9,20.9,0000.0,0012.00,0005.26,0004.59
2022-06-04 06:47:00,,0823.4,5.01,0.00,30.1,28.9,00.0,39.0,31.9,20.9,0000.0,0012.02,0005.27,0004.61
2022-06-04 06:48:00,,0823.4,5.01,0.00,30.1,28.9,00.0,39.0,31.9,20.9,0000.0,0012.12,0005.31,0004.63
2022-06-04 06:49:00,,0823.3,4.99,0.00,30.1,28.9,00.0,39.0,31.9,20.9,0000.0,0012.17,0005.35,0004.66
2022-06-04 06:50:00,,0823.3,5.00,0.00,30.1,28.9,00.0,39.0,31.9,20.9,0000.0,0012.16,0005.38,0004.68
2022-06-04 06:51:00,,0823.4,5.00,0.00,30.1,28.9,00.0,39.0,31.9,20.9,0000.0,0011.51,0005.41,0004.71
2022-06-04 06:52:00,,0823.4,5.00,0.00,30.1,28.9,00.0,39.0,31.9,20.9,0000.0,0010.94,0005.40,0004.72
2022-06-04 06:53:00,,0823.4,4.99,0.00,30.1,28.9,00.0,39.0,31.9,20.8,0000.0,0010.05,0005.43,0004.73
2022-06-04 06:54:00,,0823.4,5.01,0.00,30.1,28.8,00.0,39.0,31.9,20.8,0000.0,0010.24,0005.49,0004.76
2022-06-04 06:55:00,,0823.4,5.01,0.00,30.1,28.8,00.0,39.0,31.9,20.9,0000.0,0010.44,0005.53,0004.77
2022-06-04 06:56:00,,0823.3,5.00,0.00,30.1,28.8,00.0,39.0,31.9,20.9,0000.0,0010.42,0005.53,0004.78
2022-06-04 06:57:00,,0823.3,5.00,0.00,30.1,28.8,00.0,39.0,31.9,20.9,0000.0,0009.81,0005.53,0004.78
2022-06-04 06:58:00,,0823.3,5.00,0.00,30.1,28.8,00.0,39.0,31.9,20.9,0000.0,0009.67,0005.53,0004.78
2022-06-04 06:59:00,,0823.2,5.00,0.00,30.0,28.8,00.0,39.0,31.9,20.9,0000.0,0009.66,0005.53,0004.78
